Location: Abraham Lincoln Continuation High School
(33.9711°N, 117.3662°W)
Time: 23:30:54
(UTC+00:00)

Iridium 4 Rocket - Pass Details

Date: 17 January 2021
Orbit: 583 x 906 km, 86.9° (Epoch: 03 March)

Event Time Altitude Azimuth Distance (km) Brightness Sun altitude
Rises 04:14:23 0° 345° (NNW) 3,490 7.1 -38.9°
Enters shadow 04:16:30 - 337° (NNW) 2,749 6.6 -39.3°
Exits shadow 04:26:56 - 219° (SW) 2,580 6.6 -41.5°
Sets 04:28:47 0° 211° (SSW) 3,219 7.0 -41.9°
